www.pogodaiklimat.ru

Погода и климат >> Архив погоды >> Россия >> Приморский край >> Тимирязевский


АРХИВ ПОГОДЫ в Тимирязевском

Время (UTC), дата Ветер
(напр.,м/с)
 
Видим.   Явления Облачность Т
(С)
Тd
(С)
f
(%)
Тe
(С)
Тes
(С)
Комфортность P
(гПа)
Po
(гПа)
Тmin
(С)
Tmax
(С)
R
(мм)
R24
(мм)
S
(см)
21 9.01 ЮЗ 2 20 км ясно -15.6 -21.7 59 -21 -21 1017.6 1012.9 -16.7
00 10.01 Ю 1 10 км ясно -16.3 -21.3 65 -19 -18 1018.1 1013.4 -18.3
03 10.01 СЗ 3 10 км ясно -1.2 -20.0 22 -5 -2 1016.2 1011.8
06 10.01 С 7-11
{13}
20 км ясно +0.8 -18.3 22 -5 -4 1015.7 1011.2
09 10.01 С 2
{11}
20 км ясно -4.9 -17.8 36 -8 -8 1018.9 1014.3 +1.2
12 10.01 СВ 1 20 км ясно -12.8 -17.7 67 -15 -15 1021.8 1017.1
15 10.01 З 1 20 км ясно -14.1 -19.4 64 -17 -17 1024.4 1019.6
18 10.01 СВ 1 20 км ясно -17.7 -21.2 74 -21 -21 1026.0 1021.2
21 10.01 ЮВ 1 20 км ясно -19.2 -22.4 76 -22 -22 1027.4 1022.6 -19.6
00 11.01 СВ 1 4000 м дым ясно -18.6 -21.9 75 -21 -20 1028.6 1023.8 -20.7
03 11.01 С 1 4000 м дым ясно -5.5 -16.6 41 -7 -3 1027.8 1023.2
06 11.01 С 2 20 км ясно -3.7 -19.1 29 -7 -5 1026.1 1021.5
09 11.01 СВ 2 20 км ясно -8.2 -19.5 40 -12 -12 1026.1 1021.5 -3.4
12 11.01 штиль 0 20 км ясно -13.1 -19.8 57 -13 -13 1026.6 1021.9
15 11.01 ЮЗ 1 20 км ясно -17.5 -21.5 71 -20 -20 1026.9 1022.1
18 11.01 штиль 0 20 км ясно -19.7 -23.0 75 -20 -20 1026.9 1022.1
21 11.01 штиль 0 20 км ясно -20.6 -23.7 76 -21 -21 1026.6 1021.7 -20.6
00 12.01 СВ 1 4000 м дым ясно -19.1 -22.4 75 -22 -21 1027.5 1022.6 -21.1
03 12.01 С 2 10 км ясно -7.2 -17.5 44 -11 -7 1025.8 1021.2
06 12.01 С 1 10 км ясно -2.0 -18.8 26 -3 -1 1024.0 1019.5
09 12.01 СВ 1 10 км ясно -6.0 -21.3 29 -8 -8 1024.8 1020.2 -1.4
12 12.01 С 1 10 км ясно -13.3 -19.7 59 -16 -16 1025.8 1021.0
15 12.01 штиль 0 10 км ясно -15.4 -20.2 67 -15 -15 1026.1 1021.3
18 12.01 СЗ 1 10 км ясно -19.0 -22.5 74 -22 -22 1027.1 1022.3
21 12.01 СВ 1 10 км ясно -19.6 -22.3 79 -23 -23 1027.0 1022.1 -19.9
00 13.01 штиль 0 4000 м дым ясно -17.8 -21.0 76 -18 -17 1027.4 1022.6 -20.6
03 13.01 СВ 1 4000 м дым ясно -7.3 -16.4 48 -9 -5 1025.8 1021.2
06 13.01 З 1 10 км ясно -1.9 -16.4 32 -3 -1 1024.2 1019.7
09 13.01 СВ 1 10 км ясно -7.6 -16.5 49 -10 -10 1024.9 1020.3 -1.7
12 13.01 СВ 1 10 км ясно -12.7 -17.5 67 -15 -15 1025.6 1020.9
15 13.01 З 1 10 км 6/6 600 м
[Sc]
-15.8 -19.9 71 -18 -18 1026.0 1021.2
18 13.01 штиль 0 10 км 10/10 600 м
[Sc]
-11.5 -16.3 68 -12 -12 1026.7 1022.0
21 13.01 ЮЗ 1 10 км 10/10 600 м
[Sc]
-14.8 -18.0 77 -17 -17 1026.8 1022.1 -15.9
00 14.01 ЮЗ 1 4000 м дым 10/10 600 м
[Sc]
-13.1 -16.4 76 -15 -15 1027.1 1022.4
03 14.01 штиль 0 4000 м дым 10/0
[As op]
-7.6 -13.6 62 -8 -7 1025.6 1020.9
06 14.01 СВ 1 4000 м дым 10/0
[Ci fib]
-2.4 -11.8 48 -4 -3 1023.4 1018.9
09 14.01 СВ 1 4000 м дым 10/0
[Ci fib]
-6.3 -12.2 63 -8 -8 1023.0 1018.4 -2.1
12 14.01 штиль 0 4000 м дым 10/0
[Ci fib]
-10.2 -13.5 77 -11 -11 1022.6 1017.9
15 14.01 штиль 0 4000 м дым 10/0
[Ci fib]
-11.7 -14.0 83 -12 -12 1021.3 1016.6
18 14.01 З 1 4000 м дым 10/0
[As op]
-12.2 -14.5 83 -14 -14 1019.6 1014.9
21 14.01 СВ 1 4000 м дым 10/0
[As op]
-11.3 -13.5 84 -14 -14 1017.8 1013.1 -12.6
00 15.01 СЗ 2 4000 м слаб. снег 10/0
[As op]
-9.4 -11.1 87 -14 -14 1017.1 1012.5
03 15.01 С 3 4000 м слаб. снег 10/0
[As op]
-6.8 -8.9 85 -12 -12 1016.0 1011.5
06 15.01 СВ 4 10 км {снег} 10/0
[As op]
-7.5 -11.1 75 -14 -14 1016.8 1012.2
09 15.01 С 4 10 км 10/0
[Ac trans Ci fib]
-9.9 -15.3 65 -17 -17 1018.9 1014.3 -6.3 0.7
12 15.01 С 2 10 км {ливн. осадки} 10/6 600 м
[Cb cap Ci ing]
-14.3 -17.0 80 -19 -19 1021.7 1017.0
15 15.01 СЗ 4 10 км 3/0
[Ci fib]
-18.6 -25.8 53 -27 -27 1022.7 1017.9
18 15.01 С 1 10 км ясно -17.9 -25.1 53 -21 -21 1022.7 1017.9
21 15.01 Ю 1 10 км ясно -23.4 -27.7 68 -27 -27 1021.0 1016.1 -24.0 0.0 3
00 16.01 Ю 2 10 км 10/4 600 м
[Sc Ac trans]
-18.0 -23.1 64 -23 -23 1020.6 1015.8 -24.2
03 16.01 Ю 4 20 км 10/3 600 м
[Sc Ac trans Ci fib]
-11.4 -21.4 43 -18 -17 1017.4 1012.8
06 16.01 Ю 4 20 км 10/0
[Ci fib]
-7.8 -20.2 36 -14 -13 1014.7 1010.1
09 16.01 Ю 3 20 км 4/3 600 м
[Sc Ci fib]
-9.4 -20.4 40 -15 -15 1013.7 1009.1 -7.5
12 16.01 Ю 2 20 км 10/8 600 м
[Sc Ci fib]
-10.3 -19.5 47 -15 -15 1013.9 1009.3
15 16.01 СЗ 5
{12}
20 км {ливн. осадки} 10/8 600 м
[Cb cap Ci fib]
-10.5 -16.3 62 -18 -18 1016.2 1011.6
18 16.01 С 3
{12}
20 км {ливн. осадки} ясно -13.4 -23.5 42 -20 -20 1016.5 1011.8

 

Местоположение метеостанции Тимирязевский (Приморский край, Россия): широта 43.88 долгота 131.90 высота над уровнем моря 36 м.

В архиве по умолчанию представлена погода в Тимирязевском за последнюю неделю. Архивные данные за месяц целиком и за предыдущие месяцы, начиная с января 2011 года, Вы можете получить, выбрав интересующий диапазон дат из раскрывающегося списка и нажав кнопку "Ввод!".


*Определитесь, кто Вы:
робот инопланетянин человек

Внимание! Время в таблицах - всемирное. Для получения местного времени необходимо прибавить поправку, которая равна 10 ч.

Смотрите также архив погоды в соседних городах и на ближайших метеорологических станциях:

Погода в Полтавке (Приморский край, Россия) (51 км)
Погода в Хороле (Приморский край, Россия) (62 км)
Погода в Многоудобном (Приморский край, Россия) (65 км)
Погода в Пограничном (Приморский край, Россия) (75 км)
Погода в Суйфэньхэ (Хэйлунцзян, Китай) (82 км)
Погода в Владивостоке (Приморский край, Россия) (85 км)
Погода в Барабаше (Приморский край, Россия) (86 км)
Погода в Анучино (Приморский край, Россия) (89 км)
Погода на Мысе Назимова (Приморский край, Россия) (92 км)
Погода в Астраханке (Приморский край, Россия) (94 км)

Пояснения к столбцам:

Ветер - указаны скорость ветра в м/с - средняя за 10 мин, порывы в срок и между сроками (в фигурных скобках) и направление, откуда дует ветер: С - северный, СВ - северо-восточный, В - восточный, ЮВ - юго-восточный, Ю - южный, ЮЗ - юго-западный, З - западный, СЗ - северо-западный.
Видимость - горизонтальная дальность видимости в метрах или километрах. При видимости от 1 до 10 км при отсутствии осадков обычно наблюдается дымка, при ухудшении видимости до 1 км и менее - туман. В сухую погоду видимость может ухудшаться дымом, пылью или мглою.
Явления - указаны атмосферные явления, наблюдавшиеся в срок или в последний час перед сроком; фигурными скобками обозначены явления, наблюдавшиеся между сроками (за 1-3 часа до срока); квадратными скобками обозначены град или гололедные отложения с указанием их диаметра в мм.
Облачность - указаны через наклонную черту общая и нижняя облачность в баллах и высота нижней границы облаков в метрах; квадратными скобками обозначены формы облаков: Ci - перистые, Cs - перисто-слоистые, Cc - перисто-кучевые, Ac - высококучевые, As - высокослоистые, Sc - слоисто-кучевые, Ns - слоисто-дождевые, Cu - кучевые, Cb - кучево-дождевые. Подробнее классификацию облаков см. в Атласе облаков (PDF).
T - Температура воздуха - температура, измеренная на высоте 2 м над землей.
Td - Температура точки росы - температура, при понижении до которой содержащийся в воздухе водяной пар достигнет насыщения.
f - Относительная влажность воздуха - влажноcть воздуха, измеренная на высоте 2 м над землей.
Te - Эффективная температура - температура, которую ощущает одетый по сезону человек в тени. Характеристика душности погоды. При расчете учитывается влияние влажности воздуха и скорости ветра на теплоощущения человека.
Tes - Эффективная температура на солнце - температура, которую ощущает человек, с поправкой на солнечный нагрев. Характеристика знойности погоды. Зависит от высоты солнца над горизонтом, облачности и скорости ветра. Ночью, в пасмурную погоду, а также при ветре 12 м/с и более поправка равна нулю.
P - Атмосферное давление - приведенное к уровню моря атмосферное давление.
Po - Атмосферное давление - измеренное на уровне метеостанции атмосферное давление.
Tmin - Минимальная температура - минимум температуры воздуха на высоте 2 м над землей.
Tmax - Максимальная температура - максимум температуры воздуха на высоте 2 м над землей.
R - Количество осадков - Количество выпавших осадков за период времени, мм. При наведении курсора мыши на число - период времени, за который выпало указанное количество осадков.
R24 - Количество осадков - Количество выпавших осадков за 24 часа, мм.
S - Снежный покров - Высота снежного покрова, см. При наведении курсора мыши на число - состояние снежного покрова и степень покрытия местности в баллах.